{"data":{"norad_id":56537,"intl_designator":"2023-065AL","name":"STARLINK-6311","alt_names":[],"object_type":"PAYLOAD","status":"ACTIVE","operator":null,"country":"US","launch_date":"2023-05-14","launch_site_code":"AFETR","launch_vehicle":null,"mission":null,"orbit_class":"UNKNOWN","rcs_meters":null,"size_class":null,"mass_kg":null,"dimensions":null,"purposes":["comms"],"wikipedia_slug":null,"has_3d_model":false,"image_url":null,"decayed_at":null,"tle_current":{"epoch":"2026-05-25T04:00:03.998880Z","epoch_age_seconds":74794,"freshness":"FRESH","line1":"1 56537U 23065AL  26145.16671295 -.00012916  00000+0 -46090-3 0  9999","line2":"2 56537  43.0008 154.7895 0001311 266.6449  29.9651 15.27562162  5694","mean_motion":15.27562162,"eccentricity":0.0001311,"inclination_deg":43.0008,"raan_deg":154.7895,"arg_perigee_deg":266.6449,"mean_anomaly_deg":29.9651,"bstar":-0.0004609,"rev_number":569,"period_min":94.267849506998,"perigee_km":482.20300144886,"apogee_km":484.00201844837,"semimajor_km":6861.2395099486,"source":"CELESTRAK","updated_at":"2026-05-25T13:38:18.113591Z"}}}